Dewpoint
36 33 32 32 32 32 32 32 33 33 33 32 32 31 31 31 31 32 31 31 30 30
35 32 31 31 32 31 31 31 32 33 33 33 32 31 30 29 29 29 29 29 30 30
33 31 31 31 30 30 30 30 31 32 32 32 31 30 29 28 29 28 28 28 27 27
34 34 32 31 30 29 29 30 30 31 31 30 30 30 29 28 28 27 26 26 26 26
35 34 33 32 29 29 29 29 30 30 30 29 29 30 29 29 29 27 27 26 25 25
35 33 32 30 30 30 29 29 29 30 29 29 30 30 30 29 28 28 28 28 27 27
33 31 30 30 29 30 29 30 30 30 29 29 29 29 28 29 26 23 22 24 25 25
31 30 29 29 28 28 28 28 29 28 28 28 27 27 26 24 21 19 20 21 22 23
29 28 28 28 27 27 26 26 26 26 26 27 24 25 23 19 15 14 17 17 18 20
28 28 28 27 28 27 26 26 26 25 25 24 22 24 21 15 11 11 15 18 17 14
27 27 27 26 26 27 27 27 27 26 26 24 24 24 19 16 15 17 20 19 17 17
27 27 27 26 26 28 28 28 27 26 25 25 25 25 25 19 17 17 18 17 18 17
28 26 26 27 27 27 27 26 26 26 26 24 24 26 25 17 15 14 14 15 16 19
27 27 27 27 27 27 26 26 27 27 28 25 26 26 24 17 14 16 16 18 19 20
Wind_Speed
26 21 20 23 21 16 16 15 15 14 13 13 12 12 11 11 11 12 11 11 8 8
22 24 22 21 22 17 16 14 15 14 13 13 12 12 13 12 13 12 11 11 10 11
18 17 22 21 22 20 15 16 18 18 15 14 13 11 12 13 13 15 12 11 12 10
21 15 14 18 17 22 18 16 17 18 17 15 14 12 11 12 13 13 14 12 13 14
19 25 20 19 18 20 19 16 17 18 18 16 14 12 13 13 12 14 14 12 12 13
22 22 23 21 19 21 21 16 16 18 18 16 13 13 12 13 13 13 12 10 10 11
23 24 24 24 22 21 21 19 17 16 18 16 14 13 12 11 11 11 10 8 10 10
20 21 21 23 23 21 20 18 15 16 15 14 13 12 15 14 13 13 12 10 11 11
21 23 23 23 23 21 19 18 17 15 17 16 11 14 15 16 15 16 16 15 14 16
20 24 25 24 23 21 20 18 18 17 16 15 12 19 19 18 16 17 16 17 16 15
21 23 24 24 24 24 23 21 18 17 16 16 15 22 22 17 16 14 15 15 15 15
21 25 26 26 24 22 23 20 18 18 19 19 20 24 24 21 18 16 14 12 12 14
23 25 26 25 24 21 20 19 17 17 15 18 22 25 23 20 15 18 15 12 11 12
25 25 25 24 23 22 21 19 17 17 18 19 21 25 25 21 15 15 15 14 12 10
Wind_Direction
173 167 167 161 157 157 161 165 162 156 150 142 134 128 128 124 123 125 124 130 132 128
165 162 165 157 141 157 152 162 157 149 143 139 134 134 128 123 120 118 119 119 125 125
159 161 155 152 152 148 148 164 153 146 148 141 140 136 127 129 131 130 133 135 127 114
145 141 150 139 154 150 152 153 151 146 146 146 144 143 137 137 140 141 133 133 125 118
159 149 150 153 156 147 146 158 156 147 146 146 141 146 152 152 158 144 141 136 132 124
157 153 153 154 155 144 147 153 156 148 147 144 141 149 153 160 148 139 131 136 130 131
163 161 157 153 152 147 151 152 149 142 136 138 144 146 145 136 127 122 121 129 128 133
158 150 147 149 150 151 156 156 138 132 129 136 148 153 154 146 133 128 126 114 122 117
151 144 148 150 149 150 147 145 145 146 151 147 157 156 152 146 139 136 135 135 131 125
152 151 152 148 148 147 143 146 149 149 154 147 153 153 151 149 144 139 147 144 139 131
154 152 154 154 152 146 142 149 148 152 148 145 153 155 149 147 144 151 149 148 145 141
164 153 154 158 157 154 154 154 159 157 158 158 158 154 154 153 155 150 147 145 150 147
164 160 158 153 149 148 148 148 148 162 162 162 158 165 167 155 154 149 148 150 147 159
160 159 151 143 142 145 146 148 162 164 164 163 164 168 168 160 156 153 153 152 153 158